STARLINK-2601 (48384 NORAD) Tracking and Keplerian Element Data

This shows tracking and keplerian element data for the satellite.

Feedback or suggestion? Click here.




ElementValue
Catalog48384
NameSTARLINK-2601
Epoch Orbit1516
Epoch Day214.61465627
Epoch Year2021
RAAN333.7717
Inclination53.05
Eccentricity0.0001251
Argument of Perigee94.3871
Mean Anonmoly265.7261
Mean Motion15.06388539
Decay Rate-8.39E-06
L11 48384U 21038AH 21214.61465627 -.00000839 00000-0 -37443-4 0 9995
L22 48384 53.0500 333.7717 0001251 94.3871 265.7261 15.06388539 15164

Live tracking and technical data element details for STARLINK-2601 (NORAD 48384). STARLINK-2601 can be tracked NOW for your location showing map with azimuth and elevation plus other details from your city location.

Track the satellite on the map from your city or location and see movement details for azimuth, elevation, latitude, longitude, range, height, and movement on the map or in text.







IsCatalogInMostPopularTable: catalog: 48384, numindb: 29
Update: records affected: 1



GetName: 48384 STARLINK-2601

Hit Count: updated at: Wed, 04 Aug 2021 00:22:30 GMT